Location: Marcé
(47.5801°N, 0.3280°W)
Time: 08:45:42
(UTC+01:00)

Explorer 7 - Pass Details

Date: 09 December 2021
Orbit: 483 x 674 km, 50.3° (Epoch: 24 January)

Event Time Altitude Azimuth Distance (km) Brightness Sun altitude
Rises 04:51:57 0° 227° (SW) 2,908 - -37.0°
Reaches altitude 10° 04:54:23 10° 222° (SW) 1,974 - -36.5°
Maximum altitude 04:58:42 46° 149° (SSE) 792 - -35.8°
Exits shadow 05:01:51 16° 80° (E) 1,513 9.7 -35.3°
Drops below altitude 10° 05:02:48 10° 76° (ENE) 1,864 10.3 -35.1°
Sets 05:05:02 0° 70° (ENE) 2,729 11.3 -34.8°
